Theta_e
312 312 312 312 312 312 312 310 311 311 312 311 312 311 312 311 308 304 299 305 309 315 316 312 312 312 316 313 311 300 291 289 290 292 295 301 307 313 315 314 314 316 318 324 331
312 312 312 312 312 311 311 310 311 310 311 311 311 311 310 308 302 298 308 312 314 316 308 305 304 307 308 308 307 301 290 291 294 295 295 301 308 312 312 311 311 317 323 328 328
312 311 311 311 311 310 310 310 311 311 310 310 310 309 309 307 296 298 314 314 314 315 309 308 308 305 304 307 303 299 295 294 294 296 298 300 308 312 310 307 312 314 320 324 325
311 311 311 310 310 309 309 310 310 311 310 310 308 307 307 303 285 299 311 311 311 310 307 305 302 299 301 300 304 299 299 295 297 298 297 302 310 309 312 312 315 320 323 323 321
311 310 309 309 309 308 309 310 310 310 309 309 309 307 302 294 293 304 307 307 305 305 303 302 298 297 298 302 302 298 299 296 298 296 297 308 308 309 309 314 320 322 322 321 320
310 309 309 308 308 308 308 309 308 309 309 309 310 307 299 288 305 305 304 303 302 301 299 303 299 300 297 302 301 298 299 296 297 295 303 305 307 311 311 319 319 320 319 320 320
309 309 308 308 308 308 308 308 309 309 308 309 311 305 295 294 305 306 303 301 301 300 297 302 305 296 298 301 302 298 294 294 295 295 301 307 304 305 312 319 316 317 318 319 320
309 308 308 308 308 308 308 307 307 308 307 309 311 300 290 303 303 301 302 300 303 301 301 305 306 298 295 303 298 294 293 288 293 295 298 300 294 306 315 315 314 315 317 318 319
309 308 308 308 308 306 306 306 306 308 308 310 299 294 288 305 297 300 302 298 300 300 302 306 301 292 294 297 292 293 287 286 290 294 297 296 295 308 313 314 312 314 316 317 318
308 307 308 307 306 304 304 304 304 302 300 302 298 287 292 289 296 299 302 301 297 297 297 297 291 286 290 294 285 287 286 286 287 291 295 296 299 308 312 313 312 313 315 317 317
308 307 307 306 304 303 296 291 287 287 290 287 288 288 291 294 299 299 301 298 297 295 288 292 286 284 287 295 293 292 289 284 288 292 294 295 301 306 309 312 311 312 314 316 317
307 307 306 304 303 301 293 288 290 290 284 291 291 292 294 295 289 295 300 291 290 287 291 289 284 290 290 294 293 287 287 285 289 292 297 297 299 304 307 310 311 312 312 315 317
307 305 304 303 302 294 288 288 294 296 285 287 290 289 290 292 288 290 295 292 288 288 289 287 288 293 292 291 290 285 287 285 287 291 294 295 293 299 305 309 312 314 314 316 317
307 303 303 303 293 288 287 292 294 292 279 283 285 289 291 291 287 295 297 293 291 287 290 290 295 293 291 288 291 283 288 289 288 288 286 289 284 289 300 304 309 311 312 314 315
305 302 301 298 288 287 290 292 293 286 272 283 284 294 291 287 290 292 298 293 289 290 291 287 292 292 288 287 289 285 290 289 288 286 287 286 287 290 299 300 305 309 312 313 315
304 300 298 291 288 289 291 291 286 275 273 277 285 283 285 289 289 291 294 297 297 292 292 291 296 292 287 289 288 290 289 289 289 287 283 283 282 284 293 298 303 307 311 312 313
303 299 293 291 284 289 290 284 275 267 280 277 278 281 283 282 286 289 287 285 283 282 284 289 289 291 291 288 290 290 288 281 280 280 280 281 282 284 287 295 302 305 309 311 313
301 295 293 289 288 290 285 280 268 273 274 280 280 280 279 280 284 284 282 283 286 284 281 280 280 288 291 287 286 287 286 280 273 275 278 280 280 285 289 291 293 297 310 310 311
302 285 284 287 288 287 281 268 267 271 276 276 277 276 277 278 280 280 281 281 284 285 279 280 283 289 288 289 289 285 283 285 278 276 278 279 281 286 290 289 289 290 291 292 294
283 281 282 287 286 284 277 272 274 278 278 278 270 272 268 271 275 273 277 282 281 286 286 284 279 287 288 289 288 286 286 282 280 274 274 276 278 282 285 288 287 286 285 286 288
281 280 283 286 285 279 269 272 276 279 278 277 273 271 268 268 266 269 277 281 282 284 286 284 282 282 286 284 283 284 282 281 282 281 276 273 278 283 286 287 286 284 284 284 284
281 278 284 284 276 270 268 276 280 278 278 277 276 276 272 273 270 271 274 279 284 285 284 285 282 279 281 286 287 284 282 281 280 277 278 278 279 283 283 283 284 283 283 283 283
277 277 284 282 270 264 275 276 277 276 276 276 275 277 276 275 273 274 277 282 283 284 284 285 281 275 277 282 284 283 283 282 281 281 277 276 279 281 281 280 281 281 281 281 281
278 275 278 277 275 271 270 272 274 278 276 277 276 276 275 274 276 274 278 281 281 283 288 288 283 279 276 279 282 282 284 283 281 279 278 278 279 279 279 279 279 279 280 280 280
277 269 269 269 269 263 268 266 268 270 276 277 275 274 272 270 274 274 275 279 281 282 282 282 280 281 282 283 284 283 283 282 282 281 280 279 281 283 281 280 279 279 279 279 278
278 275 271 271 262 266 268 263 267 270 272 271 269 273 269 267 270 269 273 275 274 277 276 278 280 281 280 284 283 283 284 283 282 282 281 281 281 280 278 278 277 278 278 277 277
282 281 277 272 263 267 266 268 272 275 274 278 274 270 271 274 274 274 275 275 276 275 276 270 272 276 274 283 280 279 281 282 282 281 282 281 283 278 277 279 277 277 277 276 275
Wind_Speed
19 19 19 18 18 16 16 16 17 17 17 17 17 15 16 10 7 4 10 6 6 9 4 5 7 8 8 11 6 4 2 7 8 15 7 6 6 1 2 8 2 2 3 10 17
19 18 19 18 17 15 17 16 17 17 17 17 14 13 7 2 3 9 7 9 13 15 2 10 13 14 12 15 6 6 4 7 7 7 7 8 5 11 6 5 3 5 10 19 15
19 18 17 16 16 16 15 16 16 17 16 14 10 5 5 1 2 3 16 12 11 16 8 8 1 4 17 12 8 7 9 5 6 6 10 9 6 3 13 5 9 17 18 19 16
17 19 17 15 15 16 16 16 16 16 14 9 6 6 7 3 1 4 12 7 2 8 8 7 3 3 15 20 10 14 4 5 5 6 7 10 10 6 7 4 9 16 18 16 18
20 19 17 16 16 16 15 15 15 12 10 5 8 7 5 4 3 6 5 8 5 3 7 8 10 4 11 24 12 7 7 3 1 7 5 10 6 7 3 4 15 19 19 17 15
19 18 17 16 15 14 13 12 9 8 7 4 13 6 0 5 2 5 2 4 6 6 3 4 5 7 11 17 11 8 9 4 3 7 5 6 3 5 1 12 17 22 18 15 15
18 17 17 16 15 15 14 12 11 10 3 2 14 2 3 2 2 6 3 3 3 2 1 3 8 5 9 14 5 14 10 3 2 6 6 8 4 4 6 15 20 17 17 14 14
17 16 16 17 16 15 14 12 10 4 4 6 12 2 3 1 4 5 1 3 2 1 3 2 10 8 9 2 6 7 8 7 2 5 1 4 6 2 11 20 19 17 15 14 13
17 16 16 17 16 15 15 12 2 4 6 9 4 2 3 4 1 2 1 1 2 2 1 7 7 2 10 14 10 7 19 6 3 1 5 3 4 9 11 16 18 16 16 14 13
17 16 16 15 11 16 10 4 7 5 5 2 3 3 3 4 3 4 1 4 2 2 2 5 5 3 6 13 12 13 16 4 9 6 4 6 4 12 12 16 19 16 15 14 14
17 17 15 14 11 13 5 4 6 5 9 4 4 4 2 8 2 5 3 1 2 3 3 5 4 8 2 15 12 25 18 9 3 1 9 3 10 14 12 10 11 12 14 13 13
18 18 14 10 11 9 5 6 5 4 2 9 6 3 6 5 1 3 2 2 1 1 12 4 3 2 4 7 17 1 18 5 4 2 8 6 7 8 12 15 15 14 14 14 14
17 18 12 5 9 8 7 3 4 4 3 3 2 3 3 5 2 3 4 3 1 7 6 8 5 10 12 12 18 3 19 5 10 3 8 6 4 3 3 8 11 8 9 9 14
15 16 12 2 8 1 3 4 4 1 3 10 5 3 2 2 1 4 5 1 4 9 6 7 8 10 7 11 18 6 8 6 9 6 6 3 3 1 2 8 9 10 10 10 11
12 15 10 10 5 3 1 3 1 2 6 21 8 6 12 3 1 2 3 1 2 8 3 2 6 10 14 6 5 5 6 6 4 7 6 3 5 2 4 4 9 12 10 12 12
8 13 10 6 3 2 3 2 4 7 9 13 9 9 7 7 4 4 6 4 2 16 17 4 4 3 3 5 4 8 9 8 5 4 2 2 4 4 7 6 4 4 11 12 11
2 10 8 2 3 6 2 3 8 10 8 13 8 14 10 10 10 6 11 11 4 8 7 9 4 2 4 10 5 5 13 3 5 5 3 4 1 5 0 2 2 13 8 7 11
6 4 5 4 5 1 3 8 15 2 4 6 6 11 7 12 8 13 4 8 15 10 5 5 7 6 6 6 8 7 6 8 9 7 5 3 5 4 1 3 4 6 5 5 2
7 3 3 6 5 2 6 13 6 3 5 8 11 4 7 6 4 6 10 7 8 10 5 6 4 5 2 2 3 6 4 7 9 3 4 2 5 3 4 4 6 7 8 7 6
4 3 3 11 5 5 11 6 2 2 3 2 4 4 6 11 7 8 7 4 7 4 6 1 7 3 5 0 4 4 7 5 2 7 5 3 4 6 6 7 3 3 5 6 6
5 5 4 9 5 10 8 3 2 2 3 1 1 2 2 3 3 3 4 4 7 9 7 4 3 1 2 4 4 2 2 6 6 4 7 4 8 5 9 6 7 3 3 4 5
4 6 6 6 9 3 3 2 4 5 4 4 2 3 3 1 4 3 3 3 11 5 5 4 3 4 2 1 1 2 4 4 5 5 1 2 6 3 4 4 5 5 3 4 5
4 2 4 4 7 4 2 3 3 5 4 4 4 4 2 4 5 3 2 1 8 5 3 6 2 4 8 6 1 2 1 4 4 3 6 6 6 2 3 3 3 5 4 4 4
5 5 7 8 3 5 2 3 2 3 2 3 4 2 3 4 4 3 3 3 4 7 7 2 2 2 9 5 1 5 5 3 3 3 5 6 2 6 8 8 6 5 5 5 5
6 0 4 5 5 4 3 1 4 6 3 4 4 6 0 3 3 4 3 5 1 10 4 3 2 1 2 0 2 3 5 7 8 6 6 3 7 3 11 10 7 6 5 5 5
5 4 3 3 1 2 3 2 2 4 2 6 5 4 2 5 4 3 2 3 1 7 5 6 1 2 2 2 5 4 6 7 4 3 5 5 6 2 4 8 6 7 7 6 5
1 2 5 4 2 4 3 4 3 3 2 2 2 2 3 0 3 4 4 2 2 3 4 3 3 3 5 5 6 6 9 8 5 4 7 8 5 8 6 10 11 10 9 8 6
Wind_Direction
321 319 321 320 320 320 312 324 324 314 318 317 307 309 302 281 288 325 237 220 204 251 288 151 166 219 196 174 118 129 146 188 168 169 162 164 123 65 75 123 89 39 143 136 139
323 323 320 324 320 319 320 325 321 315 313 305 314 311 309 277 274 262 250 241 227 257 240 242 193 199 176 180 181 151 178 178 181 165 167 168 138 141 140 131 76 100 103 130 134
326 325 325 320 318 317 320 319 317 315 312 326 329 20 340 219 257 18 314 214 223 249 218 230 193 195 179 169 180 161 198 183 185 175 146 145 128 135 128 208 191 165 148 143 146
332 326 327 323 320 321 326 324 315 313 320 346 94 53 11 166 147 307 352 49 96 219 197 176 183 275 173 181 165 160 248 171 160 177 129 154 126 128 157 176 150 157 150 146 152
335 340 334 331 328 324 326 317 315 319 319 3 138 74 32 64 146 244 347 18 25 92 207 182 185 148 209 176 158 152 167 169 138 140 141 133 151 163 149 78 133 141 149 150 155
338 341 339 332 330 324 318 309 316 315 317 67 165 129 182 77 100 178 39 339 36 5 37 213 178 179 289 166 164 127 139 154 88 139 135 117 118 100 42 132 135 147 150 152 157
340 342 339 335 334 334 326 319 319 318 332 76 170 162 73 89 83 131 74 14 32 12 286 222 121 147 335 152 153 133 132 85 87 167 156 129 69 150 138 145 146 152 151 153 161
340 340 340 341 343 336 332 326 325 357 129 126 156 84 85 51 122 119 96 5 343 110 305 28 111 144 259 118 76 136 110 130 243 151 61 156 193 159 161 152 159 160 154 154 160
342 346 346 344 347 351 339 335 18 64 144 120 76 3 61 138 260 117 171 99 322 84 356 109 83 96 329 154 142 243 153 137 120 230 129 116 145 167 171 161 162 165 161 158 154
344 349 351 348 3 353 359 46 41 57 35 54 79 56 35 330 321 105 292 131 276 143 165 115 76 104 263 160 165 158 143 133 148 201 67 80 95 160 170 172 174 170 165 162 165
349 348 347 358 15 6 46 44 21 6 37 38 40 291 27 311 228 81 5 108 308 190 148 109 98 197 161 189 143 156 147 110 74 50 82 45 146 169 170 168 171 170 169 164 170
351 349 350 14 48 48 62 84 167 167 118 34 17 128 9 349 293 79 271 104 36 224 124 106 86 155 351 249 134 69 138 104 67 54 95 96 115 175 184 182 178 170 174 172 160
349 354 1 50 100 42 81 97 291 179 98 340 322 321 331 317 36 180 217 111 67 115 67 77 103 121 239 151 143 111 159 153 135 121 53 117 69 149 204 196 174 181 154 176 171
353 360 1 78 61 191 73 308 317 242 74 356 2 101 287 265 151 191 200 124 197 144 109 64 149 172 177 143 156 114 125 104 115 92 132 14 189 274 228 170 175 164 167 179 187
3 4 19 42 139 83 166 306 284 79 39 332 326 304 308 242 83 201 145 91 173 143 137 67 131 164 150 155 129 149 127 104 80 89 112 21 85 228 155 219 182 177 178 179 189
10 15 23 24 29 73 304 176 61 43 12 339 322 345 7 7 91 115 215 233 267 87 74 111 217 82 117 58 68 149 90 49 54 77 105 1 114 248 186 191 196 196 199 185 184
38 43 40 30 308 331 309 60 46 67 332 337 334 342 342 11 24 62 61 53 68 102 99 75 23 76 88 74 354 90 131 93 32 7 201 337 73 245 26 344 257 199 182 174 189
139 62 39 68 301 277 48 58 62 253 316 320 313 319 40 1 35 35 64 45 12 33 98 107 98 3 345 133 156 154 144 143 155 176 201 345 222 202 131 58 27 44 156 100 156
137 6 25 341 335 45 61 52 173 255 286 318 310 18 0 3 25 41 28 30 11 359 93 112 42 317 78 124 117 189 153 158 107 31 60 227 282 271 157 70 40 49 59 55 41
92 59 7 326 5 59 66 103 213 286 304 290 73 45 10 336 36 31 16 354 334 357 318 79 87 347 310 347 52 125 156 118 44 138 179 254 238 220 197 187 134 58 37 20 13
58 50 295 347 45 48 83 80 320 307 338 49 166 33 342 342 81 55 359 350 356 324 334 347 87 237 35 10 157 104 147 49 111 132 155 155 246 204 196 157 161 146 77 37 19
74 42 334 1 55 36 69 91 359 336 351 4 51 133 129 133 47 51 61 338 346 318 25 12 73 74 157 223 302 322 168 143 152 217 124 178 258 25 106 105 130 137 107 67 55
71 325 334 43 76 15 56 51 58 15 2 8 32 6 13 45 68 59 101 26 1 25 27 335 10 75 353 355 355 147 308 102 102 94 193 141 256 112 110 114 110 138 123 95 65
76 26 351 47 47 102 73 0 13 28 42 341 14 41 352 60 40 106 42 3 344 357 342 301 60 152 182 191 179 174 173 165 114 136 155 229 239 213 205 186 173 152 139 116 89
23 251 193 334 5 86 84 147 1 353 0 9 12 45 50 64 31 62 357 322 45 353 10 57 166 340 235 242 233 198 200 184 177 174 173 213 197 258 197 188 173 159 149 128 97
102 121 18 111 10 73 0 279 113 304 13 344 88 320 50 111 172 201 357 18 335 333 30 348 180 349 285 36 16 280 241 221 239 214 250 170 231 133 109 104 144 167 165 150 134
5 92 106 314 16 66 255 192 195 131 282 249 182 110 34 131 198 209 194 281 256 346 356 46 124 109 277 342 335 293 210 200 200 179 160 200 204 160 173 179 176 174 172 163 149